Regional Weather Roundup
Issued by NWS Newport/Morehead, NC

Current Version | Previous Version | Graphics & Text | Print | Product List | Glossary Off
Versions: 1 2 3 4 5 6 7 8 9 10 11 12 13 14 15 16 17 18 19 20 21 22 23 24 25 26 27 28 29 30 31 32 33 34 35 36 37 38 39 40 41 42 43 44 45 46 47 48 49 50

000
ASUS42 KMHX 280713
RWRMHX
WEATHER ROUNDUP FOR EASTERN NORTH CAROLINA
NATIONAL WEATHER SERVICE NEWPORT/MOREHEAD CITY NC
300 AM EDT FRI APR 28 2017

NOTE: "FAIR" INDICATES FEW OR NO CLOUDS BELOW 12,000 FEET
WITH NO SIGNIFICANT WEATHER AND/OR OBSTRUCTIONS TO VISIBILITY

NCZ015>017-031-032-045>047-102-103-280800-
NORTH COAST

CITY           SKY/WX    TMP DP  RH WIND       PRES   REMARKS
EDENTON        CLOUDY    72  68  86 S6        29.96S
ELIZABETH CITY CLOUDY    72  68  87 S10       29.94F
KITTY HAWK     CLOUDY    72  68  89 S6        29.95F
MANTEO         CLOUDY    71  69  92 SW12      29.98S

$$

NCZ045>047-081-094-103-104-280800-
CENTRAL COAST

CITY           SKY/WX    TMP DP  RH WIND       PRES   REMARKS
FRISCO         CLOUDY    73  69  87 SW12      29.99F FOG

$$

NCZ095-097-098-100-101-280800-
SOUTHERN COAST

CITY           SKY/WX    TMP DP  RH WIND       PRES   REMARKS
BEAUFORT       PTCLDY    73  73 100 S9        29.98S
CEDAR ISLAND   NOT AVBL
JACKSONVILLE   CLOUDY    74  73  97 S9        29.97S
PINEY ISLAND   PTSUNNY  N/A N/A N/A S9        29.98S
WILMINGTON     CLOUDY    75  72  90 S9        29.98R


$$

NCZ011>013-027>030-043-044-078>080-089-090>093-098-280800-
COASTAL PLAIN

CITY           SKY/WX    TMP DP  RH WIND       PRES   REMARKS
AHOSKIE          N/A     70  65  84 S5        29.94S
CLINTON        MOCLDY    72  72  98 S3        29.96S
ELIZABETHTOWN  MOCLDY    74  72  92 S7        29.96S
GOLDSBORO      CLOUDY    73  73 100 S6        29.93F
GREENVILLE     MOCLDY    72  70  94 S8        29.97S
HAVELOCK       NOT AVBL
KENANSVILLE    CLOUDY    72  70  94 S3        29.96S
KINSTON        MOCLDY    72  69  92 CALM      29.96S
NEW BERN       CLOUDY    75  72  90 S12G22    29.98S
RICHLANDS      CLOUDY    73  71  93 S9        29.97S
ROCKY MOUNT    CLOUDY    71  69  93 S6        29.94R
WASHINGTON     CLOUDY    71  69  93 S3        29.96S
WHITEVILLE     CLOUDY    74  71  89 S7        29.96S

$$

AMZ130-135-150-152-154-156-158-170-250-252-270-ANZ085-086-088-633-658-670-280800-
MARINE OBSERVATIONS

STATION/POSITION TIME  TEMP    WIND        PRES    WAVE   SWELL
                       AIR SEA DIR/SP/G            HT/PER HT/PER
                 (UTC) (F)     (DEG/KT/KT) (MB)    (FT/S) (FT/S)
CHESAPEAKE LIGHT NOT AVBL
64 E VA BEACH    0650   62 57  210/ 12/ 14 1015.1    5/ 8   3/ 8
DUCK             0648   73 57  200/ 13/ 16 1013.8
2 E DUCK         0700      59                N/A     3/12   2/12
OREGON INLET     0648          190/ 13/ 16   N/A
13E OREGON INLT  0648      63                N/A     5/11   3/11
HATTERAS CG      0648   74 71  190/  5/ 10 1015.2
DIAMOND BUOY     0650   77 77  200/ 19/ 23 1015.6    6/ 8   2/11
CAPE LOOKOUT     0700   73     190/ 13/ 15 1015.1
BEAUFORT LAB     0648   72 69  190/ 10/ 11 1014.6
30 SE NEW RVR IN 0608   73     190/ 14/ 17 1015.3
30 SE NEW RVR IN 0643      72                N/A     5/ 8   2/12
27 SE WRIGHTSVLE 0608   74 72  170/ 12/ 17 1014.4
5 SE WRIGHTSVLE  0608   73 71  180/ 10/ 16 1015.0
225 S CAPE HAT   0650   74 75  180/ 14/ 16 1018.5    4/ 8   3/ 8
41 SE CHARLESTON 0650   75 74  200/ 12/ 16 1015.0    5/ 8   3/ 8

$$




USA.gov is the U.S. government's official web portal to all federal, state and local government web resources and services.